Location: RyutenAO
(34.8939°N, 134.0022°E)
Time: 06:14:23
(UTC+09:00)

N. Korean satellite - Pass Details

Date: 28 November 2022
Orbit: 407 x 442 km, 97.3° (Epoch: 05 February)

Event Time Altitude Azimuth Distance (km) Brightness Sun altitude
Rises 05:26:15 0° 8° (N) 2,525 10.1 -17.0°
Reaches altitude 10° 05:28:19 10° 5° (N) 1,641 9.1 -16.6°
Maximum altitude 05:31:49 66° 284° (WNW) 518 6.4 -15.9°
Drops below altitude 10° 05:35:16 10° 201° (SSW) 1,611 9.1 -15.2°
Sets 05:37:17 0° 198° (SSW) 2,473 10.1 -14.8°
